SCP
0 0 0 0 0 0 0 0 0 0 0 0 0 0 0 0 0 0 0 0 0 0 0 0 0 0 0 0 0 0 0 0 0 0 0 0 0 0 0 0 0 0 0
0 0 0 0 0 0 0 0 0 0 0 0 0 0 0 0 0 0 0 0 0 0 0 0 0 0 0 0 0 0 0 0 0 0 0 0 0 0 0 0 0 0 0
0 0 0 0 0 0 0 0 0 0 0 0 0 0 0 0 0 0 0 0 0 0 0 0 0 0 0 0 0 0 0 0 0 0 0 0 0 0 0 0 0 0 0
0 0 0 0 0 0 0 0 0 0 0 0 0 0 0 0 0 0 0 0 0 0 0 0 0 0 0 0 0 0 0 0 0 0 0 0 0 0 0 0 0 0 0
0 0 0 0 0 0 0 0 0 0 0 0 0 0 0 0 0 0 0 0 0 0 0 0 0 0 0 0 0 0 0 0 0 0 0 0 0 0 0 0 0 0 0
0 0 0 0 0 0 0 0 0 0 0 0 0 0 0 0 0 0 0 0 0 0 0 0 0 0 0 0 0 0 0 0 0 1 1 0 0 0 0 0 0 0 0
0 0 0 0 0 0 0 0 0 0 0 0 0 0 0 0 0 0 0 0 0 0 0 0 0 0 0 0 0 0 0 0 0 1 1 1 1 0 0 0 0 0 0
0 0 0 0 0 0 0 0 0 0 0 0 0 0 0 0 0 0 0 0 0 0 0 0 0 0 0 0 0 0 0 0 0 0 0 0 0 0 1 1 1 0 0
0 0 0 0 0 0 0 0 0 0 0 0 0 0 0 0 0 0 0 0 0 0 0 0 0 0 0 0 0 0 0 0 0 0 0 0 0 0 0 1 1 1 1
0 0 0 0 0 0 0 0 0 0 0 0 0 0 0 0 0 0 0 0 0 0 0 0 0 0 0 0 0 0 0 0 0 0 0 0 0 0 0 0 1 1 1
0 0 0 0 0 0 0 0 0 0 0 0 0 0 0 0 0 0 0 0 0 0 0 0 0 0 0 0 0 0 0 0 0 0 0 0 0 0 0 0 0 0 0
0 0 0 0 0 0 0 0 0 0 0 0 0 0 0 0 0 0 0 0 0 0 0 0 0 0 0 0 0 0 0 0 0 0 0 0 0 0 0 0 0 0 0
0 0 0 0 0 0 0 0 0 0 0 0 0 0 0 0 0 0 0 0 0 0 0 0 0 0 0 0 0 0 0 0 0 0 0 0 0 0 0 0 0 0 0
0 0 0 0 0 0 0 0 0 0 0 0 0 0 0 0 0 0 0 0 0 0 0 0 0 0 0 0 0 0 0 0 0 0 0 0 0 0 0 0 0 0 0
0 0 0 0 0 0 0 0 0 0 0 0 0 0 0 0 0 0 0 0 0 0 0 0 0 0 0 0 0 0 0 0 0 0 0 0 0 0 0 0 0 0 0
0 0 0 0 0 0 0 0 0 0 0 0 0 0 0 0 0 0 0 0 0 0 0 0 0 0 0 0 0 0 0 0 0 0 0 0 0 0 0 0 0 0 0
0 0 0 0 0 0 0 0 0 0 0 0 0 0 0 0 0 0 0 0 0 0 0 0 0 0 0 0 0 0 0 0 0 0 0 0 0 0 0 0 0 0 0
0 0 0 0 0 0 0 0 0 0 0 0 0 0 0 0 0 0 0 0 0 0 0 0 0 0 0 0 0 0 0 0 0 0 0 0 0 0 0 0 0 0 0
0 0 0 0 0 0 0 0 0 0 0 0 0 0 0 0 0 0 0 0 0 0 0 0 0 0 0 0 0 0 0 0 0 0 0 0 0 0 0 0 0 0 0
0 0 0 0 0 0 0 0 0 0 0 0 0 0 0 0 0 0 0 0 0 0 0 0 0 0 0 0 0 0 0 0 0 0 0 0 0 0 0 0 0 0 0
0 0 0 0 0 0 0 0 0 0 0 0 0 0 0 0 0 0 0 0 0 0 0 0 0 0 0 0 0 0 0 0 0 0 0 0 0 0 0 0 0 0 0
0 0 0 0 0 0 0 0 0 0 0 0 0 0 0 0 0 0 0 0 0 0 0 0 0 0 0 0 0 0 0 0 0 0 0 0 0 0 0 0 0 0 0
0 0 0 0 0 0 0 0 0 0 0 0 0 0 0 0 0 0 0 0 0 0 0 0 0 0 0 0 0 0 0 0 0 0 0 0 0 0 0 0 0 0 0
0 0 0 0 0 0 0 0 0 0 0 0 0 0 0 0 0 0 0 0 0 0 0 0 0 0 0 0 0 0 0 0 0 0 0 0 0 0 0 0 0 0 0
0 0 0 0 0 0 0 0 0 0 0 0 0 0 0 0 0 0 0 0 0 0 0 0 0 0 0 0 0 0 0 0 0 0 0 0 0 0 0 0 0 0 0
0 0 0 0 0 0 0 0 0 0 0 0 0 0 0 0 0 0 0 0 0 0 0 0 0 0 0 0 0 0 0 0 0 0 0 0 0 0 0 0 0 0 0
Wind_Speed
3 6 8 8 7 9 9 8 6 2 3 3 4 4 5 4 4 5 7 7 7 8 8 8 8 7 9 11 10 9 9 9 5 5 8 10 12 14 12 9 11 13 12
6 8 9 9 9 9 9 9 8 7 2 2 2 2 1 2 4 3 4 6 7 8 8 10 10 9 9 11 10 9 8 9 6 6 6 6 6 8 10 11 13 14 10
6 7 8 9 9 10 9 9 9 9 8 4 3 3 2 2 2 2 3 5 7 8 9 11 11 9 9 10 11 10 13 12 9 10 10 8 8 4 5 7 9 11 10
6 5 7 7 8 8 7 9 9 9 9 8 7 6 3 3 3 3 3 5 5 6 7 9 10 10 9 11 12 12 11 13 12 9 11 13 7 7 6 6 6 9 11
6 5 5 6 6 7 8 8 9 9 9 8 8 7 5 3 3 3 5 6 5 6 6 6 6 8 8 10 11 11 12 11 12 11 9 11 12 13 12 13 10 7 9
5 4 4 5 6 7 7 7 9 9 9 9 9 8 8 7 7 7 7 6 5 5 8 8 7 7 6 8 10 11 12 11 13 12 10 9 9 9 12 15 14 13 9
6 5 4 4 5 6 6 6 8 9 9 9 9 8 8 7 7 6 5 5 5 4 8 8 8 7 7 7 8 9 10 10 12 12 11 10 11 11 12 14 15 14 10
6 6 5 4 3 5 6 7 8 8 8 8 7 7 7 5 4 5 4 5 5 5 7 9 9 9 9 9 8 7 8 8 10 11 12 10 10 10 11 13 15 17 13
7 6 5 4 3 6 6 6 7 8 8 8 8 8 8 7 7 6 6 5 6 7 10 10 11 11 10 11 10 8 9 9 8 9 10 9 8 8 8 9 10 14 18
6 5 4 3 5 6 6 7 7 7 7 7 7 6 7 7 7 7 8 8 8 9 10 11 12 12 11 11 11 10 10 11 11 9 11 11 9 8 7 8 8 9 14
7 5 3 4 6 6 6 6 6 7 7 7 7 7 7 7 7 7 8 8 8 9 10 10 11 11 11 11 11 12 13 12 12 11 11 13 12 9 8 7 7 8 9
6 5 6 7 6 6 6 6 6 6 6 6 6 6 7 7 8 8 9 9 10 10 10 11 11 11 11 11 11 13 13 11 12 13 13 13 11 12 10 9 9 10 9
6 6 6 6 5 5 5 5 6 6 6 6 6 7 7 8 8 9 10 10 11 12 12 13 13 14 13 12 12 11 10 11 13 13 12 11 11 12 11 11 12 11 11
7 7 6 5 5 4 5 5 5 5 6 6 6 6 7 7 8 9 10 11 12 13 13 14 15 15 15 15 12 12 14 12 12 10 10 10 10 12 13 12 12 13 14
7 7 6 5 4 4 4 4 5 5 5 5 5 6 7 7 8 9 10 11 11 13 13 14 15 14 14 13 18 18 17 14 12 9 9 9 12 15 13 14 15 15 14
7 7 6 5 4 4 3 3 4 4 5 5 5 6 8 9 9 10 11 12 12 13 14 14 15 16 15 23 29 25 18 12 11 12 12 12 11 13 22 25 24 22 19
8 6 5 4 3 3 2 2 3 4 4 4 6 7 8 10 10 12 12 12 13 13 14 14 15 16 17 27 30 28 15 12 12 13 14 14 13 18 16 20 24 21 24
7 6 4 3 2 2 2 2 3 4 4 5 6 7 8 10 10 10 11 11 11 12 13 14 14 14 18 27 28 26 14 11 10 11 14 13 11 14 19 18 19 19 19
6 5 4 3 2 2 2 3 3 4 5 6 7 8 8 10 11 12 11 11 12 12 12 13 14 15 17 24 27 30 13 12 12 13 14 15 12 21 28 20 20 22 21
5 4 3 3 2 2 3 4 5 6 6 7 7 7 7 9 10 11 11 10 11 12 13 14 13 14 14 22 29 29 12 12 12 11 12 19 22 27 30 20 18 21 20
5 4 3 2 2 2 4 5 5 6 6 7 7 7 7 8 9 8 8 11 12 12 12 13 12 12 15 21 26 28 14 12 13 12 11 11 27 32 33 28 17 20 24
5 4 3 2 2 3 4 4 5 6 6 7 7 8 7 8 10 9 10 10 10 12 11 12 12 9 11 17 21 27 25 24 16 13 11 14 30 32 31 22 21 27 25
4 3 3 1 2 3 3 4 6 6 7 7 8 8 9 7 8 8 10 10 8 9 10 10 11 11 10 12 23 26 28 29 18 13 23 29 30 26 18 21 26 22 12
3 2 1 2 3 3 4 5 6 6 7 8 8 8 8 8 7 7 7 8 9 9 10 10 11 11 10 9 10 11 13 18 16 13 18 24 23 20 21 19 15 10 11
3 1 2 3 4 5 6 6 6 6 7 8 8 8 7 7 8 8 7 10 8 11 14 11 11 12 12 15 27 21 14 14 15 19 10 10 12 12 11 11 11 11 11
2 1 3 4 4 5 6 7 6 6 7 8 8 7 6 7 7 9 11 16 17 22 23 22 20 16 20 27 28 28 26 27 28 19 11 11 12 13 13 14 14 13 12
Wind_Direction
41 26 18 8 11 17 21 22 22 333 189 173 189 204 225 229 232 232 233 228 225 222 223 237 239 229 234 241 234 235 242 248 230 244 263 258 251 252 253 247 250 252 247
37 23 15 13 16 19 19 22 18 12 12 177 161 168 202 226 238 252 249 239 235 232 233 237 243 237 239 245 242 232 242 252 218 227 250 271 270 252 245 242 244 248 247
53 25 14 12 17 22 20 29 25 24 24 43 94 84 65 17 358 312 281 264 252 248 246 248 248 245 237 244 245 235 238 251 244 226 236 249 255 275 262 238 239 240 242
58 41 25 20 18 13 18 29 31 33 29 32 50 58 51 17 328 307 300 300 286 275 269 265 261 257 249 247 248 242 239 243 253 244 232 237 240 243 270 251 232 232 238
80 62 41 33 25 19 22 22 29 33 31 38 49 55 46 18 340 345 352 347 337 333 329 314 295 278 268 262 260 258 251 246 248 250 245 243 243 241 252 268 265 244 234
111 95 61 44 32 25 24 22 29 26 20 27 31 37 32 19 13 4 359 352 342 343 354 348 344 328 310 292 283 276 270 265 260 258 253 246 240 239 245 257 263 266 260
139 122 98 67 43 33 27 25 33 28 22 28 30 26 24 23 20 7 359 357 348 339 345 346 343 341 334 324 313 302 291 283 278 276 273 266 260 257 257 263 270 269 263
153 146 136 109 63 36 30 30 40 38 30 31 28 25 26 27 19 11 3 355 344 328 335 338 336 334 332 330 326 316 305 299 292 290 287 285 279 272 268 270 277 281 275
172 155 137 120 73 44 41 49 57 47 32 27 23 20 16 17 11 5 2 354 346 341 341 336 333 329 327 326 324 318 313 308 299 294 290 286 284 279 274 271 269 276 284
173 157 150 118 75 73 64 56 56 50 36 30 26 21 14 12 6 4 359 351 343 338 335 333 329 326 324 323 321 317 312 310 306 302 300 298 293 288 283 278 277 273 278
174 169 144 95 91 78 64 58 48 41 31 23 18 15 10 5 3 359 350 340 334 331 329 327 326 324 321 319 317 315 314 312 311 312 308 305 304 299 296 291 286 283 282
162 137 112 102 92 81 70 59 44 35 22 15 14 13 12 8 4 355 347 343 340 338 333 331 329 326 322 317 313 310 314 316 316 311 306 305 309 307 304 300 296 293 286
134 117 109 104 96 85 71 56 39 25 14 12 12 14 10 3 354 348 345 344 342 339 337 336 333 329 325 321 312 307 313 312 309 307 305 307 311 310 307 305 302 299 294
139 128 116 107 96 83 69 53 34 21 16 11 8 9 360 350 345 344 343 342 340 337 336 333 329 325 325 320 318 325 317 310 307 303 301 303 307 309 311 309 304 304 303
146 133 127 119 103 85 66 50 29 14 7 1 2 355 348 346 345 343 339 336 335 333 328 328 326 325 324 320 326 324 318 312 308 306 300 299 300 298 311 318 315 314 310
142 135 130 122 109 97 80 53 22 360 357 358 355 349 350 348 345 339 336 334 332 330 329 327 324 324 323 321 322 323 318 315 318 320 319 313 306 320 326 319 316 314 308
146 140 132 129 124 113 88 47 4 355 359 358 353 353 350 345 339 335 334 331 329 326 324 322 321 319 318 320 322 323 330 326 320 321 320 317 319 331 320 315 316 313 306
138 133 141 144 132 101 59 28 11 4 358 354 350 349 344 336 332 330 327 324 323 321 318 317 316 316 316 320 324 331 329 315 310 314 312 307 314 319 319 316 314 309 304
137 148 155 146 120 77 44 30 11 1 358 350 343 338 334 330 329 326 322 318 319 316 313 313 314 315 315 320 328 329 322 318 314 313 311 309 307 313 319 317 310 306 302
140 140 129 113 89 41 34 30 8 356 342 329 322 319 319 320 319 314 312 314 314 311 313 312 311 310 311 319 326 325 316 313 311 308 304 308 313 316 316 311 304 302 304
142 131 123 102 61 34 34 16 350 327 310 307 307 309 311 311 309 308 311 312 312 311 310 310 309 305 309 319 322 322 321 314 313 312 312 310 315 314 310 308 301 303 312
142 138 124 86 42 28 22 346 315 300 300 302 304 307 307 308 316 311 308 308 309 311 312 311 310 309 311 317 319 322 324 325 320 316 314 312 313 311 312 311 310 316 318
139 120 100 44 355 352 348 312 298 302 306 307 306 305 304 299 300 303 308 310 310 311 311 312 313 315 314 314 319 324 327 327 325 317 318 318 317 320 320 315 317 320 313
123 107 77 306 308 309 302 290 295 303 307 304 302 300 301 303 301 301 302 306 308 308 308 311 313 313 311 311 314 320 322 325 324 318 317 322 323 322 317 315 313 308 302
131 164 259 283 288 292 295 298 300 303 301 297 297 300 301 305 309 307 302 305 295 304 312 313 314 314 315 317 325 327 324 328 327 327 320 322 322 318 316 314 311 311 312
167 258 283 286 288 294 296 295 291 290 294 304 308 305 305 305 305 307 309 306 308 313 315 317 317 314 315 320 325 326 329 335 336 332 323 323 320 318 319 319 317 316 318